Tracking 28790 objects as of 19-Apr-2024
HD Live streaming from Space Station
objects crossing your sky now

FENGYUN 1C DEB

Track FENGYUN 1C DEB now!
10-day predictions


NORAD ID: 30625
Int'l Code: 1999-025ANG
Perigee: 783.2 km
Apogee: 880.9 km
Inclination: 98.9 °
Period: 101.4 minutes
Semi major axis: 7203 km
RCS: 0.017 m2 (small)
Launch date: May 10, 1999
Source: People's Republic of China (PRC)
Launch site: Taiyaun Space Center, China (TSC)

Note: This is SATELLITE DEBRIS
Your satellite tracking list
Your tracking list is empty




NASA's NSSDC Master Catalog

Two Line Element Set (TLE):
1 30625U 99025ANG 24108.76730454  .00014609  00000-0  67024-2 0  9993
2 30625  98.9283  42.1349 0067856 262.2740  97.0727 14.20136360880537
Source of the keplerian elements: AFSPC